[[{"header":{"parameterUnit":"m.s-1","parameterCategory":1,"la1":30.2991,"la2":30.254,"lo1":-89.0895,"lo2":-89.0444,"dy":0.0017,"dx":0.0017,"nx":28,"ny":28,"refTime":"2025-05-31T21:00:00:Z","depth":0,"parameterNumber":2,"parameterNumberName":"U-component_of_WINDS"},"data":[0,0,0,0,0,0,0,0,0,0,0,0,0,0,0,0,0,0,0,0,0,0,0,0,0,0,0,0,0,0,0,0,0,0,0,0,0,0,0,0,0,0,0,0,0,0,0,0,0,0,0,0,0,0,0,0,0,0,-0.1607,-0.1605,0,-0.1465,-0.1463,-0.1462,-0.1397,-0.1397,-0.1397,-0.1397,-0.1254,-0.125,-0.1246,0,0,0,0,0,0,0,0,0,0,0,0,0,-0.1824,-0.182,-0.1607,-0.1605,-0.1603,-0.1465,-0.1463,-0.1461,-0.1397,-0.1397,-0.1397,-0.1397,-0.1255,-0.125,-0.1245,0,0,0,0,0,0,0,0,0,0,0,0,0,-0.1711,-0.1819,-0.1607,-0.1554,-0.1548,-0.1466,-0.1463,-0.1461,-0.1397,-0.1397,-0.1397,-0.1397,-0.1256,-0.1251,-0.1245,-0.1205,0,0,-0.1227,-0.1224,0,0,0,0,0,0,0,0,-0.1717,-0.1703,-0.1564,-0.1558,-0.1551,-0.1449,-0.1487,-0.1375,-0.1397,-0.1454,-0.1397,-0.1397,-0.1318,-0.1307,-0.128,-0.1198,-0.1192,-0.1226,-0.1223,-0.122,-0.1218,0,0,0,0,0,0,0,-0.1725,-0.1709,-0.1551,-0.1562,-0.1554,-0.1539,-0.1523,-0.1466,-0.1387,-0.1449,-0.1444,-0.1428,-0.1315,-0.1286,-0.1277,-0.119,-0.1226,-0.1221,-0.1217,-0.1215,-0.1067,-0.1066,0,0,0,0,0,0,-0.1741,-0.1715,-0.1555,-0.1547,-0.1636,-0.1534,-0.1517,-0.1481,-0.1388,-0.1373,-0.1428,-0.1426,-0.1296,-0.1284,-0.1271,-0.1218,-0.122,-0.1215,-0.1211,-0.1067,-0.1067,-0.1066,0,0,0,0,0,0,-0.1746,-0.1728,-0.1561,-0.163,-0.1607,-0.153,-0.1491,-0.1478,-0.145,-0.1372,-0.1357,-0.1413,-0.1296,-0.128,-0.1221,-0.1212,-0.1212,-0.1207,-0.1068,-0.1067,-0.1066,-0.111,0,0,0,0,0,0,-0.1753,-0.173,-0.1713,-0.163,-0.1604,-0.1513,-0.1491,-0.1476,-0.144,-0.1435,-0.1354,-0.1341,-0.1295,-0.1231,-0.1216,-0.1204,-0.1202,-0.1068,-0.1067,-0.1067,-0.1109,-0.1111,-0.1113,0,0,0,0,0,-0.1761,-0.1731,-0.1713,-0.1694,-0.1581,-0.1513,-0.1498,-0.1445,-0.1439,-0.1422,-0.1372,-0.1343,-0.1216,-0.1225,-0.1208,-0.1194,-0.1069,-0.1068,-0.1067,-0.1109,-0.1111,-0.1113,0,0,0,0,0,0,-0.1816,-0.1719,-0.1697,-0.164,-0.1585,-0.1502,-0.1478,-0.145,-0.1395,-0.1393,-0.1331,-0.1314,-0.1261,-0.1222,-0.1234,-0.115,-0.1139,-0.1135,-0.1177,-0.1179,-0.1181,-0.1191,-0.1197,0,0,0,0,0,-0.1822,-0.1773,-0.1692,-0.1649,-0.1623,-0.1556,-0.1524,-0.1488,-0.1429,-0.1405,-0.1351,-0.1295,-0.1242,-0.1208,-0.1155,-0.1104,-0.1085,-0.1086,-0.1088,-0.1089,-0.1086,-0.1056,-0.1055,-0.1063,-0.1063,-0.1063,0,0,-0.1833,-0.1774,-0.1747,-0.1659,-0.1612,-0.1564,-0.1536,-0.1487,-0.145,-0.1398,-0.1339,-0.1298,-0.1231,-0.1176,-0.1149,-0.1142,-0.108,-0.1088,-0.109,-0.1086,-0.1055,-0.1054,-0.1053,-0.1063,-0.1063,-0.1063,0,0,-0.1828,-0.1779,-0.1738,-0.1691,-0.162,-0.1576,-0.1567,-0.1487,-0.1458,-0.1398,-0.1357,-0.1314,-0.1224,-0.1178,-0.1143,-0.1122,-0.1094,-0.1107,-0.1116,-0.1087,-0.1086,-0.1085,-0.1078,-0.1075,-0.1104,-0.1104,-0.1104,0,-0.1851,-0.1776,-0.1721,-0.1673,-0.1635,-0.1585,-0.1543,-0.1501,-0.1417,-0.1393,-0.1386,-0.1272,-0.1224,-0.1157,-0.1152,-0.1126,-0.1113,-0.1115,-0.1091,-0.1089,-0.1088,-0.1079,-0.1077,-0.1106,-0.1106,-0.1106,-0.1106,0,-0.1807,-0.1756,-0.1732,-0.1651,-0.1611,-0.1567,-0.1505,-0.1471,-0.144,-0.1397,-0.1337,-0.1277,-0.1211,-0.1193,-0.1162,-0.1122,-0.112,-0.1103,-0.1091,-0.109,-0.1081,-0.1077,-0.1109,-0.1108,-0.1108,-0.1107,0,0,-0.1832,-0.1722,-0.1714,-0.1677,-0.1595,-0.1555,-0.1509,-0.1444,-0.1416,-0.136,-0.132,-0.1246,-0.123,-0.119,-0.1153,-0.1128,-0.1115,-0.1114,-0.1112,-0.1116,-0.1067,-0.108,-0.1077,-0.1096,-0.1095,-0.1095,-0.1073,0,-0.1816,-0.1729,-0.1679,-0.1614,-0.1566,-0.1519,-0.1478,-0.1425,-0.1383,-0.1337,-0.1292,-0.124,-0.1223,-0.1199,-0.1172,-0.1123,-0.1104,-0.1124,-0.1058,-0.1057,-0.1075,-0.1073,-0.1086,-0.1068,-0.1069,-0.1069,-0.1068,0,-0.1784,-0.1729,-0.1659,-0.1583,-0.1561,-0.1526,-0.1463,-0.1419,-0.1358,-0.1329,-0.1286,-0.1249,-0.1199,-0.1192,-0.1122,-0.1137,-0.1107,-0.1079,-0.1077,-0.1068,-0.1062,-0.1063,-0.1061,-0.1058,-0.1062,-0.1063,-0.1063,0,-0.1809,-0.1717,-0.1663,-0.1633,-0.1543,-0.152,-0.1482,-0.142,-0.1384,-0.1329,-0.1306,-0.1246,-0.1213,-0.1168,-0.1117,-0.1116,-0.1052,-0.1041,-0.1027,-0.1029,-0.1015,-0.1017,-0.1007,-0.0998,-0.0998,-0.0998,-0.0998,0,-0.1795,-0.1754,-0.1673,-0.164,-0.1593,-0.1536,-0.1491,-0.1449,-0.1395,-0.1353,-0.1309,-0.1271,-0.1206,-0.116,-0.1119,-0.1068,-0.1054,-0.1029,-0.1019,-0.1033,-0.1036,-0.1012,-0.1012,-0.0997,-0.0997,-0.0998,-0.0998,0,-0.1814,-0.1758,-0.1696,-0.1617,-0.1596,-0.1565,-0.1497,-0.1463,-0.142,-0.1368,-0.1352,-0.1285,-0.1228,-0.1173,-0.1097,-0.107,-0.1019,-0.1006,-0.104,-0.1034,-0.1023,-0.1025,-0.0997,-0.0991,-0.0987,-0.0987,-0.0987,0,-0.1809,-0.1776,-0.1693,-0.1661,-0.1624,-0.1574,-0.1537,-0.148,-0.1444,-0.1372,-0.1347,-0.1288,-0.1237,-0.1149,-0.1094,-0.1036,-0.102,-0.1015,-0.1011,-0.1026,-0.1019,-0.1021,-0.1018,-0.1016,-0.1017,-0.1017,-0.1017,0,-0.1804,-0.1779,-0.1727,-0.1666,-0.1623,-0.1573,-0.1521,-0.1498,-0.1431,-0.1393,-0.1334,-0.1295,-0.1218,-0.1159,-0.1095,-0.1056,-0.1025,-0.1019,-0.1012,-0.1026,-0.1047,-0.1034,-0.1043,-0.1019,-0.1019,-0.1019,-0.1019,-0.1019,-0.181,-0.1779,-0.1716,-0.166,-0.1615,-0.1567,-0.1532,-0.1484,-0.1434,-0.1367,-0.1336,-0.1278,-0.1217,-0.1128,-0.109,-0.1043,-0.1035,-0.1026,-0.1024,-0.1022,-0.1025,-0.1055,-0.1032,-0.1031,-0.1031,-0.1031,-0.1031,0,-0.1803,-0.176,-0.171,-0.1638,-0.1594,-0.1569,-0.1511,-0.1476,-0.1425,-0.1371,-0.1322,-0.1255,-0.1198,-0.1139,-0.1078,-0.1053,-0.1037,-0.1039,-0.104,-0.1031,-0.1036,-0.1047,-0.1053,-0.1053,-0.1053,-0.1053,-0.1053,-0.1053,-0.1794,-0.174,-0.1707,-0.163,-0.1587,-0.1529,-0.1498,-0.1454,-0.141,-0.1338,-0.129,-0.1252,-0.1195,-0.1131,-0.1078,-0.1062,-0.1042,-0.1047,-0.1027,-0.1032,-0.1031,-0.103,-0.104,-0.1043,-0.1043,-0.1026,-0.1026,-0.1026]},{"header":{"parameterUnit":"m.s-1","parameterCategory":1,"la1":30.2991,"la2":30.254,"lo1":-89.0895,"lo2":-89.0444,"dy":0.0017,"dx":0.0017,"nx":28,"ny":28,"refTime":"2025-05-31T21:00:00:Z","depth":0,"parameterNumber":3,"parameterNumberName":"V-component_of_WINDS"},"data":[0,0,0,0,0,0,0,0,0,0,0,0,0,0,0,0,0,0,0,0,0,0,0,0,0,0,0,0,0,0,0,0,0,0,0,0,0,0,0,0,0,0,0,0,0,0,0,0,0,0,0,0,0,0,0,0,0,0,1.0438,1.0439,0,1.0514,1.0515,1.0516,1.0447,1.0444,1.0441,1.0439,1.0521,1.0525,1.053,0,0,0,0,0,0,0,0,0,0,0,0,0,1.0235,1.0239,1.0438,1.0439,1.044,1.0514,1.0515,1.0516,1.0448,1.0444,1.0441,1.0438,1.0519,1.0525,1.053,0,0,0,0,0,0,0,0,0,0,0,0,0,1.0319,1.024,1.0438,1.0415,1.0413,1.0514,1.0515,1.0516,1.0448,1.0444,1.044,1.0436,1.0517,1.0524,1.0531,1.066,0,0,1.0553,1.0556,0,0,0,0,0,0,0,0,1.0314,1.0326,1.0417,1.0416,1.0415,1.0467,1.0473,1.0565,1.0449,1.0435,1.0439,1.0434,1.0506,1.0514,1.0538,1.0664,1.0667,1.0554,1.0558,1.0561,1.0563,0,0,0,0,0,0,0,1.0308,1.0322,1.0468,1.0419,1.0417,1.0401,1.0408,1.049,1.0494,1.0436,1.0431,1.0441,1.0505,1.0531,1.0539,1.0668,1.0554,1.056,1.0565,1.0567,1.0901,1.0905,0,0,0,0,0,0,1.0304,1.0318,1.0466,1.0471,1.0353,1.0408,1.0416,1.0455,1.0493,1.0494,1.0444,1.0437,1.0521,1.0531,1.0542,1.0694,1.0561,1.0568,1.0572,1.0896,1.0902,1.0907,0,0,0,0,0,0,1.03,1.0318,1.0463,1.0393,1.041,1.0416,1.046,1.0458,1.0484,1.0499,1.0499,1.0471,1.0518,1.0532,1.063,1.0696,1.0571,1.0578,1.0891,1.0898,1.0904,1.1,0,0,0,0,0,0,1.0295,1.0317,1.0366,1.0395,1.0414,1.055,1.0464,1.0463,1.0496,1.0488,1.0523,1.0525,1.0516,1.062,1.0637,1.0704,1.0583,1.0885,1.0894,1.0902,1.0991,1.1009,1.1025,0,0,0,0,0,1.0288,1.0392,1.0369,1.0388,1.0475,1.0554,1.0565,1.0551,1.0502,1.0551,1.056,1.0524,1.0685,1.0631,1.065,1.0719,1.0881,1.0892,1.0901,1.0984,1.1006,1.1025,0,0,0,0,0,0,1.0374,1.0395,1.0371,1.0487,1.0519,1.0542,1.0605,1.0576,1.0624,1.0614,1.0595,1.0604,1.0708,1.0723,1.0661,1.0844,1.0775,1.079,1.0831,1.0852,1.0869,1.0864,1.0589,0,0,0,0,0,1.0406,1.0467,1.0483,1.0584,1.0601,1.06,1.0634,1.0619,1.0653,1.0667,1.0682,1.0717,1.0775,1.0814,1.0868,1.0992,1.0998,1.1048,1.1065,1.1079,1.1093,1.1158,1.118,1.094,1.094,1.094,0,0,1.0474,1.0493,1.0534,1.0601,1.0625,1.0689,1.0612,1.0684,1.0731,1.0678,1.0772,1.0784,1.0821,1.0932,1.0982,1.0948,1.1159,1.1092,1.1103,1.1109,1.117,1.1193,1.1213,1.0947,1.0946,1.0945,0,0,1.0631,1.0651,1.0737,1.076,1.0795,1.0793,1.0814,1.0841,1.0846,1.0939,1.09,1.0955,1.1056,1.1084,1.1111,1.1272,1.1241,1.129,1.138,1.1443,1.1462,1.1479,1.1537,1.1558,1.1303,1.1304,1.1304,0,1.0712,1.0806,1.0785,1.0859,1.0889,1.084,1.0926,1.0951,1.1003,1.1025,1.0985,1.1108,1.113,1.1246,1.1285,1.1308,1.1331,1.1288,1.1461,1.1477,1.1493,1.1548,1.157,1.131,1.1309,1.1308,1.1308,0,1.0903,1.0969,1.1034,1.1082,1.112,1.12,1.1191,1.1231,1.1212,1.1214,1.1308,1.1331,1.1388,1.1414,1.1398,1.1527,1.1505,1.1463,1.1394,1.1522,1.1573,1.1594,1.1318,1.1316,1.1314,1.1313,0,0,1.1122,1.1153,1.1178,1.1198,1.1231,1.1282,1.1358,1.1411,1.1447,1.1482,1.1546,1.163,1.1591,1.1622,1.1607,1.1662,1.1788,1.1614,1.1614,1.1646,1.1932,1.1964,1.1989,1.1766,1.177,1.1773,1.1929,0,1.128,1.1412,1.1393,1.152,1.158,1.1532,1.1598,1.1625,1.1628,1.1679,1.1682,1.1742,1.1685,1.1703,1.1755,1.1762,1.1846,1.175,1.1826,1.1829,1.1821,1.2016,1.2051,1.2197,1.1949,1.1952,1.1954,0,1.1484,1.1524,1.1657,1.1677,1.1702,1.1762,1.1808,1.1857,1.1886,1.1884,1.1916,1.189,1.1966,1.1892,1.1996,1.1932,1.1961,1.1968,1.1974,1.1982,1.1902,1.2031,1.2244,1.2266,1.1986,1.1983,1.1981,0,1.163,1.1718,1.1808,1.1827,1.1853,1.1896,1.1909,1.1933,1.1965,1.2005,1.2026,1.2075,1.2103,1.2141,1.2129,1.2076,1.2235,1.2161,1.2236,1.2237,1.2275,1.2273,1.2497,1.2291,1.229,1.229,1.2289,0,1.1811,1.1894,1.1874,1.193,1.2021,1.1997,1.2088,1.2095,1.2116,1.2172,1.2133,1.2186,1.2166,1.2218,1.2208,1.2296,1.2308,1.2309,1.2306,1.2314,1.2314,1.2335,1.2325,1.2296,1.2294,1.2293,1.2292,0,1.1992,1.1981,1.2076,1.2091,1.2097,1.2163,1.2176,1.2228,1.2225,1.2297,1.2312,1.2309,1.2368,1.2358,1.2424,1.2417,1.2526,1.251,1.2517,1.2514,1.2589,1.2583,1.2836,1.2868,1.264,1.2642,1.2644,0,1.2109,1.2171,1.2191,1.2225,1.224,1.2296,1.2327,1.2305,1.234,1.2375,1.2423,1.2477,1.252,1.2616,1.262,1.267,1.2655,1.274,1.2663,1.2668,1.2658,1.2655,1.2661,1.2757,1.276,1.2762,1.2763,0,1.2318,1.2308,1.2355,1.2399,1.2438,1.2472,1.2503,1.2533,1.2512,1.2553,1.2612,1.2645,1.2709,1.2765,1.281,1.2823,1.2791,1.2787,1.2807,1.2817,1.2819,1.2819,1.2561,1.2782,1.278,1.2779,1.2778,1.2777,1.2472,1.2524,1.2545,1.2598,1.2617,1.2646,1.2695,1.2696,1.2744,1.2794,1.2777,1.2844,1.2868,1.2925,1.2943,1.2994,1.2963,1.2992,1.3,1.3008,1.3017,1.2808,1.3002,1.3002,1.3001,1.3001,1.3,0,1.2679,1.2689,1.2738,1.278,1.2821,1.2782,1.2813,1.285,1.2909,1.2933,1.2974,1.304,1.3092,1.3098,1.3147,1.3187,1.3173,1.32,1.3199,1.3202,1.3043,1.3021,1.3211,1.3211,1.3211,1.3211,1.3211,1.321,1.2793,1.2879,1.2871,1.2966,1.2975,1.3039,1.3059,1.3085,1.3103,1.3178,1.322,1.3222,1.3239,1.3288,1.3333,1.3333,1.3354,1.3388,1.3383,1.3234,1.3213,1.3194,1.3173,1.3392,1.3392,1.3538,1.3539,1.354]}]]